Location: Unspecified
(47.6577°N, 23.5639°E)
Time: 10:13:34
(UTC+02:00)

ISS - Pass Details

Date: 10 February 2017
Orbit: 399 x 409 km, 51.6° (Epoch: 24 March)

Event Time Altitude Azimuth Distance (km) Brightness Sun altitude
Rises 18:30:18 0° 289° (WNW) 2,333 1.2 -8.8°
Reaches altitude 10° 18:32:26 10° 296° (WNW) 1,469 -0.1 -9.1°
Maximum altitude 18:35:38 47° 12° (NNE) 548 -3.3 -9.7°
Enters shadow 18:38:05 15° 83° (E) 1,182 -2.2 -10.1°
